[[{"header":{"parameterUnit":"m.s-1","parameterCategory":1,"la1":30.2991,"la2":30.254,"lo1":-89.0895,"lo2":-89.0444,"dy":0.0017,"dx":0.0017,"nx":28,"ny":28,"refTime":"2023-10-03T21:00:00:Z","depth":0,"parameterNumber":2,"parameterNumberName":"U-component_of_WINDS"},"data":[0,0,0,0,0,0,0,0,0,0,0,0,0,0,0,0,0,0,0,0,0,0,0,0,0,0,0,0,0,0,0,0,0,0,0,0,0,0,0,0,0,0,0,0,0,0,0,0,0,0,0,0,0,0,0,0,0,0,-4.3094,-4.3094,0,-4.3111,-4.3111,-4.3111,-4.2989,-4.2986,-4.2982,-4.2979,-4.2996,-4.3,-4.3003,0,0,0,0,0,0,0,0,0,0,0,0,0,-4.2957,-4.296,-4.3094,-4.3094,-4.3095,-4.3111,-4.3111,-4.3111,-4.299,-4.2985,-4.2981,-4.2977,-4.2995,-4.2999,-4.3003,0,0,0,0,0,0,0,0,0,0,0,0,0,-4.3,-4.2961,-4.3094,-4.3036,-4.3031,-4.3111,-4.3111,-4.3111,-4.299,-4.2985,-4.298,-4.2975,-4.2993,-4.2999,-4.3004,-4.3141,0,0,-4.3021,-4.3023,0,0,0,0,0,0,0,0,-4.2997,-4.3005,-4.3044,-4.304,-4.3034,-4.3043,-4.3069,-4.3121,-4.2992,-4.3006,-4.2979,-4.2973,-4.3016,-4.3019,-4.3033,-4.3142,-4.3142,-4.3021,-4.3025,-4.3027,-4.3029,0,0,0,0,0,0,0,-4.2995,-4.3003,-4.3101,-4.3045,-4.3039,-4.3009,-4.3009,-4.3078,-4.3039,-4.3004,-4.2995,-4.2999,-4.3012,-4.3028,-4.3033,-4.3143,-4.3021,-4.3026,-4.3029,-4.3032,-4.3365,-4.337,0,0,0,0,0,0,-4.3,-4.3002,-4.31,-4.3101,-4.3003,-4.3016,-4.3016,-4.3045,-4.3038,-4.3032,-4.3003,-4.2993,-4.3022,-4.3027,-4.3033,-4.3192,-4.3027,-4.3032,-4.3035,-4.3359,-4.3366,-4.3372,0,0,0,0,0,0,-4.2997,-4.3009,-4.3099,-4.3049,-4.3058,-4.3023,-4.3057,-4.3048,-4.3064,-4.3038,-4.303,-4.3027,-4.3018,-4.3025,-4.3115,-4.3191,-4.3035,-4.304,-4.3353,-4.3361,-4.3369,-4.3512,0,0,0,0,0,0,-4.2994,-4.3009,-4.306,-4.3051,-4.3061,-4.3181,-4.3062,-4.3052,-4.3074,-4.3061,-4.3058,-4.3053,-4.3014,-4.3108,-4.3121,-4.3196,-4.3044,-4.3346,-4.3356,-4.3366,-4.35,-4.3524,-4.3544,0,0,0,0,0,-4.2989,-4.31,-4.3064,-4.3076,-4.3125,-4.3186,-4.3192,-4.3145,-4.3081,-4.3132,-4.3115,-4.3053,-4.3182,-4.3118,-4.3131,-4.3209,-4.334,-4.3353,-4.3365,-4.349,-4.3519,-4.3544,0,0,0,0,0,0,-4.3118,-4.3098,-4.3057,-4.3168,-4.318,-4.3165,-4.3228,-4.3178,-4.3207,-4.3194,-4.3135,-4.3136,-4.3235,-4.3232,-4.3161,-4.3342,-4.325,-4.3266,-4.334,-4.3367,-4.3389,-4.3387,-4.3048,0,0,0,0,0,-4.316,-4.3211,-4.319,-4.329,-4.3299,-4.3263,-4.3288,-4.3251,-4.3261,-4.3265,-4.3254,-4.3266,-4.3309,-4.3338,-4.3377,-4.35,-4.3498,-4.3561,-4.3583,-4.3601,-4.3615,-4.368,-4.3707,-4.3413,-4.3413,-4.3413,0,0,-4.3246,-4.3241,-4.3277,-4.3316,-4.3321,-4.3375,-4.3268,-4.3329,-4.3369,-4.3274,-4.3357,-4.3352,-4.3361,-4.3468,-4.3515,-4.3468,-4.3696,-4.3617,-4.3632,-4.3635,-4.3695,-4.3723,-4.3748,-4.3421,-4.342,-4.3419,0,0,-4.3429,-4.3432,-4.3515,-4.3522,-4.3531,-4.3507,-4.3528,-4.3521,-4.3513,-4.3597,-4.3527,-4.3574,-4.3649,-4.3658,-4.3673,-4.3864,-4.3807,-4.3879,-4.3993,-4.4057,-4.408,-4.4101,-4.4167,-4.4192,-4.3893,-4.3893,-4.3893,0,-4.3535,-4.3613,-4.3564,-4.3631,-4.365,-4.3569,-4.3652,-4.3662,-4.3683,-4.3699,-4.3647,-4.374,-4.3741,-4.3849,-4.3896,-4.3911,-4.3932,-4.3877,-4.4081,-4.4101,-4.4119,-4.4182,-4.4207,-4.3901,-4.3901,-4.39,-4.3899,0,-4.3742,-4.3798,-4.3865,-4.3887,-4.3915,-4.399,-4.3952,-4.3986,-4.3949,-4.3931,-4.4017,-4.4016,-4.4052,-4.4076,-4.404,-4.418,-4.415,-4.4091,-4.3997,-4.4156,-4.4214,-4.4238,-4.3914,-4.3911,-4.3908,-4.3906,0,0,-4.4004,-4.4,-4.4025,-4.4034,-4.404,-4.4082,-4.4155,-4.4191,-4.422,-4.4239,-4.4297,-4.4365,-4.431,-4.4327,-4.4292,-4.4349,-4.4499,-4.4282,-4.4281,-4.4321,-4.4652,-4.4695,-4.4724,-4.4463,-4.4467,-4.4471,-4.4651,0,-4.4182,-4.4304,-4.4263,-4.4387,-4.4438,-4.4363,-4.4426,-4.4436,-4.4422,-4.4464,-4.4448,-4.4496,-4.4421,-4.4431,-4.4484,-4.4469,-4.4564,-4.4456,-4.4516,-4.4519,-4.4513,-4.4754,-4.4799,-4.4969,-4.4673,-4.4677,-4.468,0,-4.4404,-4.4432,-4.4562,-4.4559,-4.4579,-4.4636,-4.4666,-4.4707,-4.4718,-4.4704,-4.4725,-4.4678,-4.4749,-4.4658,-4.4755,-4.4683,-4.4706,-4.4703,-4.4708,-4.4709,-4.4607,-4.476,-4.5022,-4.5047,-4.4716,-4.4713,-4.471,0,-4.458,-4.465,-4.4736,-4.4747,-4.4747,-4.4789,-4.4791,-4.4796,-4.4821,-4.4848,-4.4864,-4.4899,-4.4918,-4.4947,-4.4911,-4.4848,-4.5014,-4.492,-4.5004,-4.5005,-4.5039,-4.5037,-4.5306,-4.5059,-4.5058,-4.5058,-4.5057,0,-4.4781,-4.4863,-4.4815,-4.4868,-4.4958,-4.4911,-4.5002,-4.4995,-4.5002,-4.5052,-4.499,-4.5039,-4.4991,-4.5036,-4.5009,-4.5093,-4.5103,-4.5093,-4.5084,-4.5097,-4.5098,-4.5109,-4.5095,-4.5064,-4.5063,-4.5062,-4.506,0,-4.4991,-4.4962,-4.5051,-4.5045,-4.5045,-4.5111,-4.5105,-4.5154,-4.5137,-4.5202,-4.5215,-4.5188,-4.5238,-4.5206,-4.5257,-4.5239,-4.5348,-4.5325,-4.5344,-4.5337,-4.5422,-4.5414,-4.5705,-4.5741,-4.5473,-4.5476,-4.5478,0,-4.5119,-4.5181,-4.5181,-4.521,-4.5216,-4.5265,-4.529,-4.5247,-4.5276,-4.5295,-4.5342,-4.5386,-4.5419,-4.5503,-4.5488,-4.5526,-4.5502,-4.5601,-4.5507,-4.5518,-4.5501,-4.5497,-4.5502,-4.5619,-4.5623,-4.5625,-4.5627,0,-4.535,-4.5334,-4.5372,-4.5407,-4.5439,-4.5464,-4.5484,-4.5512,-4.547,-4.5506,-4.5556,-4.5582,-4.5634,-4.5679,-4.5712,-4.5714,-4.5664,-4.5658,-4.5679,-4.5691,-4.5699,-4.5694,-4.5394,-4.565,-4.5648,-4.5646,-4.5645,-4.5644,-4.5522,-4.5573,-4.5581,-4.5626,-4.5637,-4.5658,-4.5704,-4.5693,-4.5734,-4.5773,-4.5746,-4.5806,-4.5817,-4.5856,-4.5865,-4.5911,-4.587,-4.5902,-4.5909,-4.5917,-4.5928,-4.5695,-4.5917,-4.5917,-4.5916,-4.5915,-4.5915,0,-4.5748,-4.575,-4.5792,-4.5823,-4.5859,-4.581,-4.5831,-4.5864,-4.5917,-4.5932,-4.5966,-4.6025,-4.6069,-4.6059,-4.6098,-4.6138,-4.6116,-4.6149,-4.6144,-4.6146,-4.5962,-4.5939,-4.6166,-4.6166,-4.6166,-4.6166,-4.6166,-4.6166,-4.5869,-4.5952,-4.5938,-4.6026,-4.6028,-4.6086,-4.6102,-4.6121,-4.6132,-4.62,-4.6236,-4.623,-4.6235,-4.6275,-4.6314,-4.631,-4.6326,-4.6368,-4.6356,-4.6184,-4.6159,-4.6135,-4.6113,-4.6373,-4.6373,-4.6535,-4.6536,-4.6538]},{"header":{"parameterUnit":"m.s-1","parameterCategory":1,"la1":30.2991,"la2":30.254,"lo1":-89.0895,"lo2":-89.0444,"dy":0.0017,"dx":0.0017,"nx":28,"ny":28,"refTime":"2023-10-03T21:00:00:Z","depth":0,"parameterNumber":3,"parameterNumberName":"V-component_of_WINDS"},"data":[0,0,0,0,0,0,0,0,0,0,0,0,0,0,0,0,0,0,0,0,0,0,0,0,0,0,0,0,0,0,0,0,0,0,0,0,0,0,0,0,0,0,0,0,0,0,0,0,0,0,0,0,0,0,0,0,0,0,2.088,2.088,0,2.0922,2.0922,2.0923,2.0971,2.0972,2.0973,2.0974,2.1014,2.1014,2.1014,0,0,0,0,0,0,0,0,0,0,0,0,0,2.0838,2.0838,2.0879,2.088,2.0881,2.0922,2.0922,2.0923,2.0971,2.0972,2.0973,2.0974,2.1014,2.1014,2.1014,0,0,0,0,0,0,0,0,0,0,0,0,0,2.0866,2.0839,2.0879,2.091,2.0913,2.0922,2.0923,2.0923,2.0971,2.0972,2.0973,2.0974,2.1013,2.1014,2.1014,2.0996,0,0,2.1016,2.1016,0,0,0,0,0,0,0,0,2.0864,2.0867,2.0905,2.0908,2.0911,2.0943,2.0923,2.0947,2.0971,2.0949,2.0974,2.0975,2.0989,2.0992,2.0997,2.0998,2.0999,2.1016,2.1017,2.1017,2.1017,0,0,0,0,0,0,0,2.0862,2.0866,2.0896,2.0905,2.0909,2.0921,2.0926,2.0928,2.0962,2.0951,2.0955,2.0959,2.0991,2.0996,2.0998,2.1,2.1016,2.1017,2.1017,2.1017,2.0988,2.0987,0,0,0,0,0,0,2.0856,2.0864,2.0895,2.0898,2.089,2.092,2.0926,2.0931,2.0962,2.0968,2.0958,2.0961,2.0995,2.0998,2.1,2.098,2.1017,2.1017,2.1018,2.0989,2.0988,2.0987,0,0,0,0,0,0,2.0855,2.0858,2.0893,2.0882,2.0887,2.092,2.0925,2.0932,2.0937,2.0968,2.0974,2.0957,2.0996,2.0999,2.0997,2.0982,2.1018,2.1018,2.0991,2.0989,2.0988,2.094,0,0,0,0,0,0,2.0853,2.0858,2.0851,2.0881,2.0887,2.089,2.0925,2.0932,2.0938,2.0943,2.0969,2.0974,2.0997,2.0996,2.0997,2.0984,2.1019,2.0992,2.099,2.0988,2.0943,2.0937,2.0932,0,0,0,0,0,2.0852,2.0835,2.0851,2.0854,2.088,2.0889,2.0892,2.092,2.0937,2.0931,2.0951,2.0973,2.0984,2.0995,2.0997,2.0984,2.0993,2.0991,2.0988,2.0946,2.0939,2.0932,0,0,0,0,0,0,2.0801,2.084,2.0857,2.085,2.0866,2.0897,2.089,2.0911,2.0922,2.0925,2.0958,2.0964,2.0958,2.0971,2.0982,2.0968,2.0992,2.099,2.0959,2.0952,2.0947,2.0943,2.1019,0,0,0,0,0,2.0789,2.0794,2.0827,2.0818,2.0825,2.0856,2.0861,2.0881,2.0899,2.0905,2.0925,2.094,2.0947,2.0951,2.0959,2.0946,2.0952,2.0938,2.0932,2.0928,2.0925,2.0919,2.0913,2.0979,2.0979,2.0979,0,0,2.0764,2.0786,2.0787,2.0808,2.0823,2.0827,2.0861,2.0863,2.0866,2.0905,2.0904,2.092,2.0939,2.0931,2.0929,2.0942,2.0908,2.0924,2.092,2.092,2.0916,2.091,2.0904,2.0977,2.0977,2.0978,0,0,2.0721,2.0738,2.0732,2.0747,2.077,2.0791,2.0789,2.0818,2.083,2.083,2.086,2.0863,2.0874,2.0887,2.0895,2.0858,2.0879,2.086,2.083,2.0824,2.0819,2.0814,2.08,2.0795,2.0857,2.0857,2.0857,0,2.0687,2.0694,2.0726,2.0727,2.0735,2.0773,2.0767,2.0779,2.0803,2.0807,2.0822,2.0838,2.0853,2.0849,2.0841,2.0846,2.0845,2.0856,2.0817,2.0813,2.0809,2.0796,2.0791,2.0854,2.0855,2.0855,2.0855,0,2.0651,2.0656,2.0648,2.0672,2.0679,2.0677,2.0708,2.0712,2.0732,2.0751,2.0751,2.0771,2.0784,2.0785,2.0804,2.0784,2.0792,2.0811,2.0836,2.08,2.0788,2.0784,2.0851,2.0852,2.0852,2.0853,0,0,2.0574,2.0617,2.0614,2.0625,2.0654,2.0658,2.0657,2.0671,2.0674,2.0689,2.0689,2.0698,2.0717,2.0726,2.0747,2.0742,2.0711,2.0762,2.0763,2.0751,2.069,2.0674,2.0668,2.0726,2.0725,2.0725,2.0688,0,2.0535,2.0537,2.0567,2.056,2.0564,2.0601,2.06,2.0617,2.0636,2.0642,2.0662,2.0668,2.0693,2.0698,2.0695,2.0715,2.0699,2.0719,2.0724,2.0724,2.0717,2.0662,2.0645,2.0609,2.0684,2.0683,2.0682,0,2.0489,2.0504,2.0497,2.0527,2.053,2.0529,2.0545,2.0551,2.0571,2.0585,2.0596,2.062,2.0621,2.0645,2.0646,2.0659,2.0663,2.0674,2.0673,2.0673,2.07,2.0659,2.0598,2.0592,2.0676,2.0676,2.0677,0,2.0433,2.0451,2.045,2.0459,2.0494,2.0492,2.0506,2.0528,2.0535,2.0548,2.0553,2.0566,2.0573,2.0582,2.0609,2.0625,2.0607,2.0634,2.0617,2.0616,2.061,2.061,2.0547,2.0615,2.0615,2.0615,2.0615,0,2.0385,2.038,2.0425,2.0424,2.0419,2.0454,2.0448,2.0465,2.0485,2.0487,2.052,2.0521,2.0558,2.0563,2.0584,2.0581,2.0584,2.0594,2.06,2.0591,2.0589,2.0593,2.0596,2.0614,2.0614,2.0614,2.0614,0,2.0321,2.0352,2.0353,2.0387,2.0395,2.039,2.0418,2.0418,2.044,2.0443,2.0445,2.0478,2.0486,2.0515,2.0529,2.0544,2.0534,2.0545,2.0527,2.053,2.0511,2.0512,2.0448,2.0441,2.0514,2.0513,2.0513,0,2.0288,2.0285,2.0319,2.0324,2.0338,2.0345,2.0353,2.0387,2.0393,2.0417,2.0414,2.0425,2.0436,2.0447,2.0471,2.0483,2.0494,2.0471,2.0496,2.0487,2.0492,2.0492,2.0491,2.0464,2.0464,2.0463,2.0462,0,2.0226,2.0242,2.0252,2.0268,2.0277,2.0291,2.0307,2.0309,2.0347,2.0352,2.0362,2.037,2.0387,2.0397,2.0413,2.0426,2.045,2.0455,2.0451,2.0441,2.043,2.0435,2.0511,2.0455,2.0456,2.0457,2.0457,2.0457,2.0176,2.0175,2.0199,2.021,2.0226,2.024,2.0242,2.0265,2.0274,2.0291,2.031,2.0317,2.0338,2.0362,2.0374,2.038,2.0393,2.0388,2.0386,2.0384,2.0379,2.0431,2.0383,2.0383,2.0383,2.0383,2.0384,0,2.0114,2.0133,2.0142,2.0164,2.0173,2.0197,2.0216,2.0221,2.0227,2.0246,2.0256,2.0267,2.0278,2.0304,2.0316,2.0316,2.0327,2.0318,2.0317,2.032,2.0368,2.0369,2.0308,2.0308,2.0308,2.0308,2.0308,2.0308,2.0083,2.0084,2.0102,2.011,2.0128,2.0137,2.0145,2.0159,2.0173,2.0185,2.0194,2.0212,2.0233,2.0248,2.0258,2.0266,2.0268,2.0255,2.0266,2.0309,2.0316,2.0323,2.0325,2.0256,2.0256,2.0218,2.0217,2.0217]}]]